Canadian, TX

11:06 PM CST on December 13, 2019 (GMT -0600)
Hemphill County

Weather History for KHHF - October, 2019

Change the Weather History Date:

Tuesday, October 8, 2019

  Actual Average (KPPA) Record (KPPA)
Temperature  
Mean Temperature 64 °F -  
Max Temperature 79 °F 72 °F 95 °F (1979)
Min Temperature 50 °F 47 °F 30 °F (1970)
Growing Degree Days 14 (Base 50)    
Moisture  
Dew Point 44 °F    
Average Humidity 48    
Maximum Humidity 68    
Minimum Humidity 32    
Precipitation  
Precipitation 0.00 in - - ()
Sea Level Pressure  
Sea Level Pressure 30.00 in    
Wind  
Wind Speed 12 mph (SSW)    
Max Wind Speed 23 mph    
Max Gust Speed 33 mph    
Visibility 10 miles    
Events      
Averages and records for this station are not official NWS values.
T = Trace of Precipitation, MM = Missing Value Source: NWS Daily Summary

Daily Weather History Graph

Daily Weather History Graph

Search for Another Location

Airport or City:

Astronomy

Oct. 08, 2019 Rise Set
Actual Time 7:42 AM CDT 7:15 PM CDT
Civil Twilight 7:16 AM CDT 7:41 PM CDT
Nautical Twilight 6:46 AM CDT 8:10 PM CDT
Astronomical Twilight 6:17 AM CDT 8:40 PM CDT
Moon 5:04 PM CDT (10/8) 2:45 AM CDT (10/8)
Length of Visible Light 12h 24m
Length of Day
11h 33m
Waxing Gibbous, 78% of the Moon is Illuminated
Oct 8
Waxing Gibbous
Oct 13
Full
Oct 21
Last Quarter
Oct 27
New
Nov 4
First Quarter

Hourly Weather History & Observations

Time (CDT) Temp. Dew Point Humidity Pressure Visibility Wind Dir Wind Speed Gust Speed Precip Events Conditions
12:15 AM 52.9 °F 40.8 °F 64% 30.16 in 10.0 mi SW 6.9 mph - N/A   Clear
12:35 AM 51.3 °F 41.0 °F 68% 30.15 in 10.0 mi SW 6.9 mph - N/A   Clear
12:55 AM 52.3 °F 40.1 °F 63% 30.14 in 10.0 mi SSW 8.1 mph - N/A   Clear
1:15 AM 54.1 °F 39.6 °F 58% 30.13 in 10.0 mi SW 9.2 mph - N/A   Clear
1:35 AM 52.9 °F 39.6 °F 61% 30.13 in 10.0 mi SW 8.1 mph - N/A   Clear
1:55 AM 52.3 °F 39.4 °F 61% 30.12 in 10.0 mi SW 6.9 mph - N/A   Clear
2:15 AM 52.5 °F 39.2 °F 61% 30.12 in 10.0 mi SW 6.9 mph - N/A   Clear
2:35 AM 53.1 °F 38.7 °F 58% 30.12 in 10.0 mi SW 6.9 mph - N/A   Clear
2:55 AM 51.8 °F 39.2 °F 62% 30.12 in 10.0 mi SW 8.1 mph - N/A   Clear
3:15 AM 53.2 °F 38.5 °F 57% 30.12 in 10.0 mi SW 9.2 mph - N/A   Clear
3:35 AM 52.3 °F 38.7 °F 60% 30.12 in 10.0 mi SW 9.2 mph - N/A   Clear
3:55 AM 52.7 °F 38.1 °F 58% 30.11 in 10.0 mi SW 8.1 mph - N/A   Clear
4:15 AM 52.2 °F 38.5 °F 60% 30.11 in 10.0 mi SW 8.1 mph - N/A   Clear
4:35 AM 50.5 °F 38.5 °F 63% 30.10 in 10.0 mi SW 6.9 mph - N/A   Clear
4:55 AM 51.1 °F 38.5 °F 62% 30.10 in 10.0 mi SW 6.9 mph - N/A   Clear
5:15 AM 51.6 °F 38.3 °F 60% 30.10 in 10.0 mi SW 8.1 mph - N/A   Clear
5:35 AM 52.2 °F 38.3 °F 59% 30.10 in 10.0 mi WSW 6.9 mph - N/A   Clear
5:55 AM 51.3 °F 38.5 °F 62% 30.10 in 10.0 mi SW 8.1 mph - N/A   Clear
6:15 AM 51.3 °F 38.3 °F 61% 30.09 in 10.0 mi WSW 5.8 mph - N/A   Clear
6:35 AM 50.7 °F 38.7 °F 63% 30.09 in 10.0 mi SW 4.6 mph - N/A   Clear
6:55 AM 50.9 °F 38.7 °F 63% 30.09 in 10.0 mi Calm Calm - N/A   Clear
7:15 AM 51.6 °F 38.3 °F 60% 30.09 in 10.0 mi SW 4.6 mph - N/A   Clear
7:55 AM 51.8 °F 38.3 °F 60% 30.09 in 10.0 mi SW 5.8 mph - N/A   Clear
8:15 AM 53.1 °F 38.3 °F 57% 30.08 in 10.0 mi SW 6.9 mph - N/A   Clear
8:35 AM 54.9 °F 38.5 °F 54% 30.08 in 10.0 mi SSW 8.1 mph - N/A   Clear
8:55 AM 57.2 °F 38.8 °F 50% 30.08 in 10.0 mi SSW 11.5 mph 20.7 mph N/A   Clear
9:15 AM 58.8 °F 40.3 °F 50% 30.07 in 10.0 mi SSW 15.0 mph 21.9 mph N/A   Clear
9:35 AM 61.0 °F 41.2 °F 48% 30.07 in 10.0 mi SSW 21.9 mph 29.9 mph N/A   Clear
9:55 AM 62.4 °F 41.9 °F 47% 30.06 in 10.0 mi South 16.1 mph 26.5 mph N/A   Clear
10:15 AM 64.0 °F 41.2 °F 43% 30.06 in 10.0 mi SSW 20.7 mph 28.8 mph N/A   Clear
10:35 AM 65.7 °F 41.7 °F 42% 30.06 in 10.0 mi SSW 17.3 mph 26.5 mph N/A   Clear
10:55 AM 66.4 °F 40.5 °F 39% 30.06 in 10.0 mi SSW 23.0 mph 29.9 mph N/A   Clear
11:15 AM 68.2 °F 41.2 °F 37% 30.05 in 10.0 mi SSW 18.4 mph 27.6 mph N/A   Clear
11:35 AM 68.9 °F 40.6 °F 36% 30.05 in 10.0 mi South 20.7 mph 27.6 mph N/A   Clear
11:55 AM 70.3 °F 41.5 °F 35% 30.05 in 10.0 mi SSW 18.4 mph 25.3 mph N/A   Clear
12:15 PM 71.2 °F 41.7 °F 34% 30.03 in 10.0 mi South 17.3 mph 26.5 mph N/A   Clear
12:35 PM 72.5 °F 42.1 °F 33% 30.03 in 10.0 mi SSW 18.4 mph 26.5 mph N/A   Clear
12:55 PM 73.4 °F 42.3 °F 33% 30.02 in 10.0 mi South 21.9 mph 28.8 mph N/A   Clear
1:15 PM 75.2 °F 43.7 °F 32% 30.00 in 10.0 mi South 18.4 mph 27.6 mph N/A   Clear
1:35 PM 75.2 °F 43.9 °F 33% 29.99 in 10.0 mi SSW 18.4 mph 25.3 mph N/A   Clear
1:55 PM 76.1 °F 45.3 °F 33% 29.98 in 10.0 mi SSW 18.4 mph 27.6 mph N/A   Clear
2:15 PM 76.3 °F 45.5 °F 33% 29.96 in 10.0 mi SSW 21.9 mph 29.9 mph N/A   Clear
2:35 PM 76.5 °F 46.2 °F 34% 29.94 in 10.0 mi South 19.6 mph 31.1 mph N/A   Clear
2:55 PM 77.4 °F 46.9 °F 34% 29.93 in 10.0 mi South 23.0 mph 27.6 mph N/A   Clear
3:15 PM 77.5 °F 46.9 °F 34% 29.92 in 10.0 mi South 20.7 mph 31.1 mph N/A   Clear
3:35 PM 78.3 °F 46.9 °F 33% 29.91 in 10.0 mi South 16.1 mph 27.6 mph N/A   Clear
3:55 PM 79.0 °F 46.8 °F 32% 29.91 in 10.0 mi SSW 20.7 mph 28.8 mph N/A   Clear
4:15 PM 78.8 °F 46.6 °F 32% 29.89 in 10.0 mi South 20.7 mph 33.4 mph N/A   Clear
4:35 PM 79.0 °F 47.1 °F 32% 29.88 in 10.0 mi South 21.9 mph 28.8 mph N/A   Clear
4:55 PM 79.0 °F 47.5 °F 33% 29.88 in 10.0 mi South 16.1 mph 28.8 mph N/A   Clear
5:15 PM 77.0 °F 47.8 °F 36% 29.88 in 10.0 mi South 17.3 mph 24.2 mph N/A   Clear
5:35 PM 78.1 °F 48.0 °F 35% 29.87 in 10.0 mi South 19.6 mph 26.5 mph N/A   Clear
5:55 PM 77.7 °F 48.4 °F 36% 29.86 in 10.0 mi South 16.1 mph 28.8 mph N/A   Clear
6:15 PM 76.6 °F 48.6 °F 37% 29.86 in 10.0 mi South 16.1 mph 25.3 mph N/A   Clear
6:35 PM 75.9 °F 49.5 °F 39% 29.86 in 10.0 mi South 23.0 mph 28.8 mph N/A   Clear
6:55 PM 75.0 °F 50.7 °F 42% 29.87 in 10.0 mi South 10.4 mph 24.2 mph N/A   Clear
7:15 PM 73.2 °F 50.7 °F 45% 29.86 in 10.0 mi South 17.3 mph 25.3 mph N/A   Clear
7:35 PM 72.0 °F 51.4 °F 48% 29.86 in 10.0 mi South 17.3 mph 20.7 mph N/A   Clear
7:55 PM 71.4 °F 51.8 °F 50% 29.86 in 10.0 mi South 15.0 mph 21.9 mph N/A   Clear
8:15 PM 70.9 °F 51.6 °F 50% 29.86 in 10.0 mi South 18.4 mph 26.5 mph N/A   Clear
8:35 PM 71.1 °F 51.4 °F 50% 29.86 in 10.0 mi South 19.6 mph 26.5 mph N/A   Clear
8:55 PM 70.0 °F 51.3 °F 51% 29.86 in 10.0 mi South 18.4 mph 26.5 mph N/A   Clear
9:15 PM 70.0 °F 51.4 °F 52% 29.86 in 10.0 mi South 19.6 mph 25.3 mph N/A   Clear
9:35 PM 69.3 °F 50.9 °F 52% 29.86 in 10.0 mi South 16.1 mph 25.3 mph N/A   Clear
9:55 PM 68.9 °F 50.5 °F 52% 29.86 in 10.0 mi South 16.1 mph 25.3 mph N/A   Clear
10:15 PM 68.4 °F 50.9 °F 54% 29.86 in 10.0 mi South 17.3 mph 24.2 mph N/A   Clear
10:35 PM 68.5 °F 50.5 °F 53% 29.85 in 10.0 mi South 20.7 mph 29.9 mph N/A   Clear
10:55 PM 68.0 °F 50.4 °F 53% 29.85 in 10.0 mi South 20.7 mph 29.9 mph N/A   Clear
11:15 PM 67.5 °F 50.2 °F 54% 29.85 in 10.0 mi South 21.9 mph 33.4 mph N/A   Clear
11:35 PM 67.5 °F 50.5 °F 55% 29.84 in 10.0 mi South 21.9 mph 29.9 mph N/A   Clear
11:55 PM 67.3 °F 50.4 °F 55% 29.84 in 10.0 mi South 21.9 mph 31.1 mph N/A   Clear